• In Spain
  • List of Countries
  • For 7 days
  • Water Temperature
  • Satellite Maps
  • Weather Map
  • Weather Widgets
  • user-avatar
    Login

    Hourly Weather Potosi

    Today, 23 September, Sunday

    Time Temperature Precipitation Wind Pressure Humidity
    00:00 +9°C° 0 mm 2 mps 468 mmHg 54%
    01:00 +8°C° 0 mm 2 mps 467 mmHg 55%
    02:00 +8°C° 0 mm 2 mps 467 mmHg 56%
    03:00 +8°C° 0 mm 1 mps 467 mmHg 56%
    04:00 +8°C° 0 mm 1 mps 466 mmHg 57%
    05:00 +8°C° 0 mm 1 mps 466 mmHg 57%
    06:00 +9°C° 0 mm 1 mps 467 mmHg 53%
    07:00 +9°C° 0 mm 1 mps 468 mmHg 49%
    08:00 +10°C° 0 mm 1 mps 469 mmHg 45%
    09:00 +12°C° 0 mm 1 mps 470 mmHg 38%
    10:00 +13°C° 0 mm 1 mps 470 mmHg 31%
    11:00 +15°C° 0 mm 1 mps 471 mmHg 24%
    12:00 +16°C° 0 mm 3 mps 471 mmHg 22%
    13:00 +15°C° 0 mm 4 mps 471 mmHg 20%
    14:00 +16°C° 0 mm 5 mps 471 mmHg 18%
    15:00 +15°C° 0.6 mm 5 mps 470 mmHg 24%
    16:00 +14°C° 0.6 mm 5 mps 469 mmHg 29%
    17:00 +12°C° 0.6 mm 5 mps 468 mmHg 35%
    18:00 +11°C° 0.8 mm 4 mps 468 mmHg 39%
    19:00 +10°C° 0.8 mm 4 mps 468 mmHg 44%
    20:00 +9°C° 0.8 mm 3 mps 468 mmHg 49%
    21:00 +9°C° 0 mm 3 mps 468 mmHg 49%
    22:00 +9°C° 0 mm 3 mps 468 mmHg 48%
    23:00 +9°C° 0 mm 2 mps 469 mmHg 48%

    Tomorrow, 24 September, Monday

    Time Temperature Precipitation Wind Pressure Humidity
    00:00 +8°C° 0.2 mm 2 mps 468 mmHg 54%
    01:00 +7°C° 0.2 mm 2 mps 468 mmHg 60%
    02:00 +7°C° 0.2 mm 2 mps 467 mmHg 66%
    03:00 +7°C° 0.2 mm 2 mps 467 mmHg 66%
    04:00 +7°C° 0.2 mm 1 mps 467 mmHg 66%
    05:00 +7°C° 0.2 mm 1 mps 467 mmHg 66%
    06:00 +8°C° 0 mm 1 mps 467 mmHg 63%
    07:00 +8°C° 0 mm 1 mps 468 mmHg 61%
    08:00 +8°C° 0 mm 1 mps 468 mmHg 59%
    09:00 +9°C° 0 mm 2 mps 469 mmHg 52%
    10:00 +10°C° 0 mm 2 mps 470 mmHg 46%
    11:00 +11°C° 0 mm 3 mps 470 mmHg 39%
    12:00 +12°C° 0.2 mm 4 mps 470 mmHg 39%
    13:00 +12°C° 0.2 mm 5 mps 470 mmHg 38%
    14:00 +11°C° 0.2 mm 6 mps 469 mmHg 38%
    15:00 +10°C° 1.1 mm 5 mps 468 mmHg 43%
    16:00 +9°C° 1.1 mm 5 mps 468 mmHg 47%
    17:00 +8°C° 1.1 mm 5 mps 467 mmHg 52%
    18:00 +8°C° 1.3 mm 4 mps 467 mmHg 56%
    19:00 +7°C° 1.3 mm 4 mps 467 mmHg 60%
    20:00 +8°C° 1.3 mm 3 mps 467 mmHg 63%
    21:00 +7°C° 0.2 mm 3 mps 467 mmHg 65%
    22:00 +7°C° 0.2 mm 3 mps 467 mmHg 66%
    23:00 +7°C° 0.2 mm 2 mps 467 mmHg 67%

    Day after tomorrow, 25 September, Tuesday

    Time Temperature Precipitation Wind Pressure Humidity
    00:00 +7°C° 0.1 mm 2 mps 467 mmHg 67%
    01:00 +6°C° 0.1 mm 2 mps 467 mmHg 67%
    02:00 +7°C° 0.1 mm 1 mps 466 mmHg 67%
    03:00 +6°C° 0 mm 1 mps 466 mmHg 66%
    04:00 +6°C° 0 mm 1 mps 465 mmHg 65%
    05:00 +6°C° 0 mm 1 mps 465 mmHg 64%
    06:00 +6°C° 0 mm 1 mps 466 mmHg 60%
    07:00 +7°C° 0 mm 1 mps 467 mmHg 55%
    08:00 +8°C° 0 mm 1 mps 468 mmHg 50%
    09:00 +10°C° 0 mm 1 mps 469 mmHg 42%
    10:00 +10°C° 0 mm 2 mps 470 mmHg 34%
    11:00 +13°C° 0 mm 2 mps 470 mmHg 26%
    12:00 +13°C° 0 mm 3 mps 470 mmHg 23%
    13:00 +14°C° 0 mm 3 mps 470 mmHg 20%
    14:00 +16°C° 0 mm 3 mps 470 mmHg 17%
    15:00 +14°C° 0.1 mm 4 mps 470 mmHg 20%
    16:00 +14°C° 0.1 mm 5 mps 469 mmHg 22%
    17:00 +14°C° 0.1 mm 5 mps 469 mmHg 24%
    18:00 +12°C° 0.2 mm 5 mps 468 mmHg 31%
    19:00 +11°C° 0.2 mm 4 mps 468 mmHg 37%
    20:00 +10°C° 0.2 mm 3 mps 468 mmHg 44%
    21:00 +9°C° 0.3 mm 3 mps 468 mmHg 49%
    22:00 +8°C° 0.3 mm 3 mps 468 mmHg 55%
    23:00 +7°C° 0.3 mm 2 mps 467 mmHg 60%

    26 September, Wednesday

    Time Temperature Precipitation Wind Pressure Humidity
    00:00 +7°C° 0 mm 2 mps 467 mmHg 63%
    01:00 +6°C° 0 mm 2 mps 466 mmHg 67%
    02:00 +6°C° 0 mm 2 mps 466 mmHg 70%
    03:00 +6°C° 0 mm 1 mps 466 mmHg 69%
    04:00 +6°C° 0 mm 1 mps 465 mmHg 68%
    05:00 +6°C° 0 mm 1 mps 465 mmHg 67%
    06:00 +7°C° 0 mm 1 mps 466 mmHg 57%
    07:00 +8°C° 0 mm 1 mps 467 mmHg 48%
    08:00 +9°C° 0 mm 1 mps 468 mmHg 38%
    09:00 +9°C° 0 mm 2 mps 469 mmHg 30%
    10:00 +12°C° 0 mm 2 mps 470 mmHg 21%
    11:00 +13°C° 0 mm 2 mps 471 mmHg 12%
    12:00 +13°C° 0 mm 3 mps 471 mmHg 11%
    13:00 +14°C° 0 mm 3 mps 471 mmHg 9%
    14:00 +16°C° 0 mm 3 mps 471 mmHg 8%
    15:00 +15°C° 0 mm 4 mps 470 mmHg 10%
    16:00 +15°C° 0 mm 5 mps 470 mmHg 12%
    17:00 +14°C° 0 mm 6 mps 469 mmHg 15%
    18:00 +13°C° 0.5 mm 6 mps 469 mmHg 23%
    19:00 +10°C° 0.5 mm 5 mps 468 mmHg 32%
    20:00 +10°C° 0.5 mm 4 mps 468 mmHg 40%
    21:00 +8°C° 0.1 mm 4 mps 467 mmHg 45%
    22:00 +8°C° 0.1 mm 3 mps 467 mmHg 51%
    23:00 +7°C° 0.1 mm 3 mps 467 mmHg 57%

    27 September, Thursday

    Time Temperature Precipitation Wind Pressure Humidity
    00:00 +7°C° 0 mm 2 mps 467 mmHg 57%
    01:00 +7°C° 0 mm 2 mps 466 mmHg 58%
    02:00 +7°C° 0 mm 2 mps 466 mmHg 59%
    03:00 +6°C° 0 mm 2 mps 466 mmHg 57%
    04:00 +6°C° 0 mm 2 mps 466 mmHg 55%
    05:00 +7°C° 0 mm 1 mps 465 mmHg 52%
    06:00 +6°C° 0 mm 2 mps 466 mmHg 43%
    07:00 +7°C° 0 mm 2 mps 467 mmHg 33%
    08:00 +8°C° 0 mm 2 mps 468 mmHg 23%
    09:00 +10°C° 0 mm 3 mps 469 mmHg 17%
    10:00 +12°C° 0 mm 3 mps 470 mmHg 12%
    11:00 +13°C° 0 mm 4 mps 471 mmHg 7%
    12:00 +14°C° 0 mm 3 mps 471 mmHg 6%
    13:00 +16°C° 0 mm 3 mps 470 mmHg 6%
    14:00 +17°C° 0 mm 3 mps 470 mmHg 5%
    15:00 +17°C° 0 mm 4 mps 470 mmHg 6%
    16:00 +17°C° 0 mm 4 mps 470 mmHg 6%
    17:00 +16°C° 0 mm 5 mps 469 mmHg 6%
    18:00 +14°C° 0 mm 5 mps 469 mmHg 13%
    19:00 +13°C° 0 mm 4 mps 469 mmHg 20%
    20:00 +11°C° 0 mm 4 mps 468 mmHg 26%
    21:00 +11°C° 0.1 mm 4 mps 468 mmHg 33%
    22:00 +10°C° 0.1 mm 3 mps 468 mmHg 40%
    23:00 +9°C° 0.1 mm 3 mps 468 mmHg 46%

    28 September, Friday

    Time Temperature Precipitation Wind Pressure Humidity
    00:00 +8°C° 0 mm 2 mps 467 mmHg 49%
    01:00 +9°C° 0 mm 1 mps 467 mmHg 53%
    02:00 +8°C° 0 mm 1 mps 466 mmHg 56%
    03:00 +8°C° 0 mm 1 mps 466 mmHg 55%
    04:00 +7°C° 0 mm 1 mps 465 mmHg 54%
    05:00 +7°C° 0 mm 1 mps 465 mmHg 54%
    06:00 +8°C° 0 mm 1 mps 466 mmHg 46%
    07:00 +9°C° 0 mm 1 mps 468 mmHg 39%
    08:00 +10°C° 0 mm 1 mps 469 mmHg 32%
    09:00 +12°C° 0 mm 1 mps 470 mmHg 26%
    10:00 +13°C° 0 mm 1 mps 470 mmHg 19%
    11:00 +15°C° 0 mm 2 mps 471 mmHg 13%
    12:00 +16°C° 0 mm 2 mps 471 mmHg 12%
    13:00 +17°C° 0 mm 2 mps 471 mmHg 10%
    14:00 +17°C° 0 mm 3 mps 471 mmHg 9%
    15:00 +17°C° 0 mm 3 mps 470 mmHg 10%
    16:00 +17°C° 0 mm 4 mps 470 mmHg 11%
    17:00 +15°C° 0 mm 5 mps 469 mmHg 12%
    18:00 +14°C° 0 mm 4 mps 469 mmHg 18%
    19:00 +13°C° 0 mm 4 mps 468 mmHg 23%
    20:00 +12°C° 0 mm 4 mps 468 mmHg 29%
    21:00 +11°C° 0 mm 3 mps 468 mmHg 34%
    22:00 +10°C° 0 mm 3 mps 468 mmHg 39%
    23:00 +10°C° 0 mm 2 mps 468 mmHg 44%
    Show more